{"data":{"norad_id":45360,"intl_designator":"2020-019A","name":"STARLINK-1279","alt_names":[],"object_type":"PAYLOAD","status":"ACTIVE","operator":null,"country":"US","launch_date":"2020-03-18","launch_site_code":"AFETR","launch_vehicle":null,"mission":null,"orbit_class":"UNKNOWN","rcs_meters":null,"size_class":null,"mass_kg":null,"dimensions":null,"purposes":["comms"],"wikipedia_slug":null,"has_3d_model":false,"image_url":null,"decayed_at":null,"tle_current":{"epoch":"2026-09-02T13:15:41.063904Z","epoch_age_seconds":1564965,"freshness":"OLD","line1":"1 45360U 20019A   26245.55255861  .05416568  12138-4  10851-2 0  9997","line2":"2 45360  53.0153 292.2211 0002654 338.5791  21.5140 16.30679862358613","mean_motion":16.30679862,"eccentricity":0.0002654,"inclination_deg":53.0153,"raan_deg":292.2211,"arg_perigee_deg":338.5791,"mean_anomaly_deg":21.514,"bstar":0.0010851,"rev_number":35861,"period_min":88.306726142669,"perigee_km":188.96999798271,"apogee_km":192.45674375957,"semimajor_km":6568.8503708711,"source":"CELESTRAK","updated_at":"2026-09-03T09:07:08.980761Z"}}}